contact:dominique.lefevre@mio.osupytheas.fr, maurice.libes@osupytheas.fr, didier.mallarino@osupytheas.fr
Project:EMSO http://www.emso-fr.org/EMSO-France
Depth: 2436.0 m
Title:EMSO Ligure Ouest : Data MII capteur AQUADOPP
Date,Latitude,Longitude,X_East,Y_North,Z_Up,Amplitude_X,Amplitude_Y,Amplitude_Z,Batterie,SoundSpeed,Heading,Pitch,Roll,Pressure,TIS,Speed,Direction
, degrees North, degrees East, m.s-1, m.s-1,m.s-1, 1, 1, 1, Volt, m.s-1, degree, degree, degree, dbar, degree_C, m.s-1, degree
2019-10-20T00:04:04,42.805,6.029,0.062,0.024,0.008,101.0,107.0,98.0,13.4,1505.1,326.5,-0.7,1.9,2470.513,13.27,0.066,68.8
2019-10-20T00:07:05,42.805,6.029,0.015,-0.003,-0.059,100.0,108.0,98.0,13.4,1505.2,326.4,-0.7,1.8,2470.473,13.29,0.015,101.3
2019-10-20T00:10:06,42.805,6.029,0.021,0.002,-0.026,100.0,106.0,98.0,13.4,1505.2,325.6,-0.8,1.9,2470.299,13.3,0.021,84.6
2019-10-20T00:13:07,42.805,6.029,0.051,-0.008,-0.031,100.0,105.0,98.0,13.3,1505.3,327.1,-0.7,1.9,2470.179,13.31,0.051,98.9
2019-10-20T00:16:08,42.805,6.029,0.042,0.025,-0.002,100.0,106.0,98.0,13.3,1505.3,323.2,-0.7,1.8,2470.101,13.32,0.048,59.2
2019-10-20T00:19:09,42.805,6.029,0.07,0.017,0.007,101.0,107.0,98.0,13.4,1505.3,323.8,-0.7,1.8,2470.072,13.32,0.072,76.3
2019-10-20T00:22:10,42.805,6.029,0.04,0.017,0.04,101.0,105.0,97.0,13.3,1505.3,326.6,-0.7,1.9,2470.008,13.32,0.043,67.0
2019-10-20T00:25:11,42.805,6.029,0.053,0.023,0.0,100.0,107.0,99.0,13.4,1505.3,325.2,-0.7,1.8,2469.998,13.33,0.057,66.5
2019-10-20T00:28:12,42.805,6.029,0.03,0.012,-0.004,100.0,106.0,99.0,13.4,1505.3,325.8,-0.7,1.8,2469.928,13.33,0.032,68.2
2019-10-20T00:31:13,42.805,6.029,0.007,0.026,-0.007,100.0,107.0,99.0,13.3,1505.3,323.3,-0.7,1.9,2469.916,13.33,0.026,15.1
2019-10-20T00:34:14,42.805,6.029,0.027,0.006,-0.015,103.0,106.0,98.0,13.3,1505.3,324.9,-0.7,1.8,2469.934,13.33,0.027,77.5
2019-10-20T00:37:15,42.805,6.029,0.024,-0.002,-0.05,100.0,107.0,97.0,13.4,1505.3,327.1,-0.7,1.9,2469.926,13.33,0.024,94.8
2019-10-20T00:40:16,42.805,6.029,0.003,0.012,-0.011,101.0,107.0,98.0,13.3,1505.3,326.6,-0.7,1.9,2469.943,13.33,0.012,14.0
2019-10-20T00:43:17,42.805,6.029,0.021,0.024,-0.029,101.0,107.0,98.0,13.4,1505.3,326.4,-0.8,1.9,2469.923,13.33,0.031,41.2
2019-10-20T00:46:18,42.805,6.029,0.021,0.012,-0.009,101.0,107.0,98.0,13.4,1505.3,326.6,-0.7,1.9,2469.896,13.33,0.024,60.3
2019-10-20T00:49:19,42.805,6.029,0.024,0.023,0.029,100.0,107.0,98.0,13.3,1505.3,325.1,-0.7,1.8,2469.896,13.33,0.033,46.2
2019-10-20T00:52:20,42.805,6.029,0.069,0.005,0.023,100.0,105.0,98.0,13.3,1505.3,326.1,-0.7,1.8,2469.941,13.33,0.069,85.9
2019-10-20T00:55:21,42.805,6.029,0.004,-0.006,-0.05,100.0,107.0,99.0,13.3,1505.3,325.7,-0.7,1.8,2469.92,13.33,0.007,146.3
2019-10-20T00:58:22,42.805,6.029,0.026,0.015,-0.013,102.0,108.0,99.0,13.4,1505.3,326.9,-0.7,1.8,2469.906,13.33,0.03,60.0
2019-10-20T01:01:23,42.805,6.029,0.039,0.035,0.011,102.0,108.0,100.0,13.4,1505.3,326.4,-0.7,1.8,2469.899,13.33,0.052,48.1
2019-10-20T01:04:24,42.805,6.029,0.054,0.0,-0.025,101.0,105.0,98.0,13.4,1505.3,328.3,-0.7,1.9,2469.932,13.33,0.053,90.0
2019-10-20T01:07:25,42.805,6.029,0.028,0.017,-0.003,101.0,107.0,99.0,13.4,1505.3,325.3,-0.7,1.8,2469.894,13.33,0.032,58.7
2019-10-20T01:10:26,42.805,6.029,0.049,0.006,-0.029,101.0,107.0,97.0,13.4,1505.3,324.6,-0.7,1.8,2469.946,13.33,0.049,83.0
2019-10-20T01:13:27,42.805,6.029,0.023,0.03,0.005,100.0,106.0,98.0,13.4,1505.3,324.1,-0.7,1.8,2469.974,13.33,0.037,37.5
2019-10-20T01:16:28,42.805,6.029,0.013,0.002,-0.005,101.0,106.0,98.0,13.3,1505.3,328.1,-0.7,1.9,2469.939,13.33,0.013,81.3
2019-10-20T01:19:29,42.805,6.029,0.032,0.01,-0.025,101.0,107.0,98.0,13.3,1505.3,324.8,-0.7,1.8,2469.927,13.33,0.033,72.6
2019-10-20T01:22:30,42.805,6.029,0.01,0.014,-0.049,100.0,106.0,99.0,13.4,1505.3,327.7,-0.7,1.8,2469.928,13.33,0.017,35.5
2019-10-20T01:25:31,42.805,6.029,0.033,-0.006,-0.017,101.0,110.0,98.0,13.4,1505.3,325.2,-0.8,1.9,2469.967,13.33,0.033,100.3
2019-10-20T01:28:32,42.805,6.029,0.018,0.019,-0.012,99.0,108.0,99.0,13.3,1505.3,326.4,-0.7,1.8,2469.943,13.33,0.026,43.5
2019-10-20T01:31:33,42.805,6.029,0.016,-0.013,-0.023,101.0,106.0,98.0,13.3,1505.3,325.1,-0.7,1.8,2469.913,13.33,0.02,129.1
2019-10-20T01:34:34,42.805,6.029,0.046,0.003,-0.009,101.0,105.0,98.0,13.4,1505.3,327.4,-0.7,1.8,2469.897,13.33,0.046,86.3
2019-10-20T01:37:35,42.805,6.029,0.025,0.035,-0.006,100.0,106.0,98.0,13.4,1505.3,323.1,-0.7,1.8,2469.963,13.33,0.043,35.5
2019-10-20T01:40:36,42.805,6.029,0.02,0.027,-0.011,101.0,105.0,98.0,13.4,1505.3,324.6,-0.7,1.8,2469.922,13.33,0.033,36.5
2019-10-20T01:43:37,42.805,6.029,0.003,0.032,-0.034,100.0,107.0,97.0,13.4,1505.3,327.3,-0.7,1.9,2469.941,13.33,0.032,5.4
2019-10-20T01:46:38,42.805,6.029,0.017,0.0,-0.009,100.0,106.0,98.0,13.3,1505.3,325.9,-0.7,1.9,2469.949,13.33,0.017,90.0
2019-10-20T01:49:39,42.805,6.029,0.038,-0.004,-0.026,100.0,109.0,99.0,13.3,1505.3,325.2,-0.7,1.8,2469.943,13.33,0.038,96.0
2019-10-20T01:52:40,42.805,6.029,0.035,-0.01,0.024,102.0,107.0,97.0,13.4,1505.3,326.4,-0.7,1.8,2469.946,13.33,0.036,105.9
2019-10-20T01:55:41,42.805,6.029,0.004,0.027,-0.01,102.0,106.0,98.0,13.3,1505.3,326.3,-0.7,1.8,2469.962,13.33,0.027,8.4
2019-10-20T01:58:42,42.805,6.029,0.003,0.008,0.006,101.0,106.0,98.0,13.4,1505.3,328.4,-0.7,1.9,2469.945,13.33,0.008,20.6
2019-10-20T02:01:43,42.805,6.029,0.024,0.01,-0.038,101.0,107.0,99.0,13.4,1505.3,325.1,-0.8,1.9,2469.95,13.33,0.026,67.4
2019-10-20T02:04:44,42.805,6.029,0.02,0.006,-0.02,100.0,108.0,99.0,13.3,1505.3,323.8,-0.7,1.8,2469.974,13.33,0.02,73.3
2019-10-20T02:07:45,42.805,6.029,0.008,0.011,-0.015,100.0,106.0,98.0,13.4,1505.3,324.9,-0.7,1.9,2469.926,13.33,0.013,36.0
2019-10-20T02:10:46,42.805,6.029,0.04,0.014,-0.006,101.0,106.0,97.0,13.4,1505.3,324.7,-0.7,1.9,2469.954,13.33,0.042,70.7
2019-10-20T02:13:47,42.805,6.029,0.031,0.01,0.007,100.0,108.0,100.0,13.4,1505.3,323.4,-0.7,1.9,2469.999,13.33,0.032,72.1
2019-10-20T02:16:48,42.805,6.029,0.052,0.003,-0.007,101.0,105.0,98.0,13.4,1505.3,325.3,-0.7,1.8,2469.946,13.33,0.052,86.7
2019-10-20T02:19:49,42.805,6.029,0.019,0.006,-0.033,102.0,106.0,100.0,13.3,1505.3,326.5,-0.7,1.8,2469.928,13.33,0.019,72.5
2019-10-20T02:22:50,42.805,6.029,0.043,0.024,-0.006,101.0,106.0,99.0,13.4,1505.3,328.1,-0.7,1.9,2469.978,13.33,0.049,60.8
2019-10-20T02:25:51,42.805,6.029,0.011,0.008,-0.026,101.0,107.0,98.0,13.4,1505.3,324.0,-0.7,1.9,2469.929,13.33,0.013,54.0
2019-10-20T02:28:52,42.805,6.029,0.019,0.005,-0.026,100.0,107.0,98.0,13.3,1505.3,324.4,-0.7,1.8,2469.963,13.33,0.019,75.3
2019-10-20T02:31:53,42.805,6.029,-0.003,0.004,-0.063,99.0,107.0,98.0,13.3,1505.3,322.9,-0.7,1.8,2469.983,13.33,0.005,323.1
2019-10-20T02:34:54,42.805,6.029,0.011,0.006,-0.036,100.0,106.0,98.0,13.4,1505.3,326.3,-0.7,1.8,2469.963,13.33,0.012,61.4
2019-10-20T02:37:55,42.805,6.029,0.001,0.004,-0.056,100.0,105.0,100.0,13.4,1505.3,324.8,-0.7,1.8,2469.931,13.33,0.004,14.0
2019-10-20T02:40:56,42.805,6.029,0.029,-0.001,-0.014,102.0,107.0,98.0,13.4,1505.3,328.7,-0.6,1.8,2470.0,13.33,0.029,92.0
2019-10-20T02:43:57,42.805,6.029,0.018,0.0,0.001,102.0,106.0,100.0,13.4,1505.3,323.2,-0.7,1.8,2469.931,13.33,0.018,90.0
2019-10-20T02:46:58,42.805,6.029,0.024,0.003,-0.069,101.0,106.0,98.0,13.4,1505.3,326.1,-0.7,1.8,2469.95,13.33,0.024,82.9
2019-10-20T02:49:59,42.805,6.029,-0.021,0.014,-0.064,99.0,108.0,98.0,13.4,1505.3,328.5,-0.7,1.9,2469.949,13.33,0.025,303.7
2019-10-20T02:53:00,42.805,6.029,0.023,0.003,-0.037,100.0,109.0,98.0,13.4,1505.3,323.5,-0.7,1.8,2469.937,13.33,0.023,82.6
2019-10-20T02:56:01,42.805,6.029,-0.012,0.002,-0.043,102.0,105.0,99.0,13.4,1505.3,328.3,-0.7,1.8,2469.938,13.33,0.012,279.5
2019-10-20T02:59:02,42.805,6.029,0.014,0.0,-0.053,100.0,104.0,99.0,13.4,1505.3,323.0,-0.7,1.8,2469.948,13.33,0.014,90.0
2019-10-20T03:02:03,42.805,6.029,-0.001,0.009,-0.048,101.0,105.0,98.0,13.4,1505.3,325.7,-0.7,1.9,2469.933,13.33,0.009,353.7
2019-10-20T03:05:04,42.805,6.029,0.007,0.016,-0.025,102.0,106.0,97.0,13.4,1505.3,325.0,-0.7,1.8,2469.936,13.33,0.017,23.6
2019-10-20T03:08:05,42.805,6.029,0.014,-0.002,-0.007,102.0,106.0,98.0,13.4,1505.3,326.6,-0.7,1.8,2469.935,13.33,0.014,98.1
2019-10-20T03:11:06,42.805,6.029,-0.012,0.005,-0.039,102.0,106.0,99.0,13.4,1505.3,327.4,-0.7,1.8,2469.933,13.33,0.013,292.6
2019-10-20T03:14:07,42.805,6.029,0.011,-0.001,-0.039,101.0,106.0,99.0,13.4,1505.3,325.8,-0.7,1.8,2469.899,13.33,0.011,95.2
2019-10-20T03:17:08,42.805,6.029,0.002,0.007,-0.045,100.0,106.0,99.0,13.4,1505.3,324.5,-0.7,1.8,2469.924,13.33,0.007,15.9
2019-10-20T03:20:09,42.805,6.029,0.028,-0.011,-0.035,100.0,106.0,97.0,13.4,1505.3,326.7,-0.7,1.8,2469.94,13.33,0.03,111.4
2019-10-20T03:23:10,42.805,6.029,0.0,-0.001,-0.045,100.0,105.0,99.0,13.4,1505.3,326.4,-0.7,1.9,2469.948,13.33,0.001,180.0
2019-10-20T03:26:11,42.805,6.029,0.018,0.004,-0.001,99.0,106.0,99.0,13.4,1505.3,324.7,-0.7,1.8,2469.931,13.33,0.018,77.5
2019-10-20T03:29:12,42.805,6.029,0.005,0.009,-0.045,101.0,107.0,98.0,13.4,1505.3,327.7,-0.7,1.8,2469.932,13.33,0.01,29.1
2019-10-20T03:32:13,42.805,6.029,0.013,-0.006,-0.041,100.0,105.0,99.0,13.3,1505.3,326.9,-0.7,1.8,2469.914,13.33,0.014,114.8
2019-10-20T03:35:14,42.805,6.029,-0.001,0.006,-0.046,102.0,107.0,98.0,13.4,1505.3,325.5,-0.7,1.8,2469.939,13.33,0.006,350.5
2019-10-20T03:38:15,42.805,6.029,0.035,0.016,0.024,101.0,108.0,97.0,13.4,1505.3,323.3,-0.7,1.8,2469.93,13.33,0.038,65.4
2019-10-20T03:41:16,42.805,6.029,0.017,-0.002,-0.075,100.0,107.0,98.0,13.4,1505.3,328.1,-0.7,1.9,2469.963,13.33,0.017,96.7
2019-10-20T03:44:17,42.805,6.029,0.008,-0.021,-0.024,101.0,106.0,99.0,13.3,1505.3,325.2,-0.7,1.8,2469.896,13.33,0.022,159.1
2019-10-20T03:47:18,42.805,6.029,0.009,0.008,-0.045,101.0,106.0,97.0,13.3,1505.3,323.9,-0.7,1.8,2469.914,13.33,0.012,48.4
2019-10-20T03:50:19,42.805,6.029,0.0,-0.003,-0.054,101.0,107.0,98.0,13.4,1505.3,328.5,-0.7,1.8,2469.934,13.33,0.003,180.0
2019-10-20T03:53:20,42.805,6.029,0.013,0.013,-0.042,100.0,108.0,99.0,13.4,1505.3,325.3,-0.7,1.8,2469.957,13.33,0.018,45.0
2019-10-20T03:56:21,42.805,6.029,-0.006,0.015,-0.046,102.0,107.0,98.0,13.4,1505.3,323.7,-0.8,1.8,2469.939,13.33,0.016,338.2
2019-10-20T03:59:22,42.805,6.029,0.001,0.007,-0.028,101.0,107.0,99.0,13.4,1505.3,324.5,-0.7,1.8,2469.919,13.33,0.007,8.1
2019-10-20T04:02:23,42.805,6.029,0.019,0.007,-0.013,101.0,107.0,98.0,13.4,1505.3,325.7,-0.7,1.9,2469.956,13.33,0.02,69.8
2019-10-20T04:05:24,42.805,6.029,-0.005,0.005,-0.077,100.0,109.0,96.0,13.4,1505.3,328.2,-0.7,1.8,2469.984,13.33,0.007,315.0
2019-10-20T04:08:25,42.805,6.029,0.002,0.008,-0.04,100.0,107.0,98.0,13.4,1505.3,326.2,-0.7,1.9,2469.928,13.33,0.008,14.0
2019-10-20T04:11:26,42.805,6.029,0.003,0.017,-0.044,100.0,107.0,99.0,13.3,1505.3,326.2,-0.7,1.9,2469.928,13.33,0.017,10.0
2019-10-20T04:14:27,42.805,6.029,0.032,0.007,-0.014,101.0,107.0,98.0,13.4,1505.3,326.9,-0.7,1.8,2469.914,13.33,0.032,77.7
2019-10-20T04:17:28,42.805,6.029,-0.008,0.023,-0.047,100.0,107.0,98.0,13.3,1505.3,324.1,-0.7,1.8,2469.972,13.33,0.024,340.8
2019-10-20T04:20:29,42.805,6.029,-0.023,0.011,-0.054,101.0,106.0,99.0,13.3,1505.3,327.2,-0.7,1.8,2469.915,13.33,0.025,295.6
2019-10-20T04:23:30,42.805,6.029,0.018,0.009,-0.041,100.0,109.0,98.0,13.4,1505.3,328.3,-0.7,1.8,2469.95,13.33,0.02,63.4
2019-10-20T04:26:31,42.805,6.029,0.017,0.02,-0.002,102.0,106.0,98.0,13.4,1505.3,325.5,-0.7,1.8,2469.911,13.32,0.026,40.4
2019-10-20T04:29:32,42.805,6.029,0.021,0.0,-0.036,99.0,108.0,98.0,13.4,1505.3,324.8,-0.7,1.8,2469.952,13.33,0.021,90.0
2019-10-20T04:32:33,42.805,6.029,0.002,0.004,-0.04,100.0,108.0,98.0,13.4,1505.3,325.7,-0.7,1.8,2469.926,13.33,0.004,26.6
2019-10-20T04:35:34,42.805,6.029,0.049,0.007,-0.016,100.0,106.0,99.0,13.4,1505.3,325.1,-0.7,1.8,2469.94,13.33,0.049,81.9
2019-10-20T04:38:35,42.805,6.029,0.031,0.002,-0.005,101.0,105.0,98.0,13.4,1505.3,326.9,-0.7,1.8,2469.907,13.33,0.031,86.3
2019-10-20T04:41:36,42.805,6.029,0.024,0.003,-0.062,101.0,105.0,98.0,13.4,1505.3,324.5,-0.7,1.8,2469.902,13.33,0.024,82.9
2019-10-20T04:44:37,42.805,6.029,0.019,0.011,-0.021,100.0,107.0,98.0,13.4,1505.3,327.3,-0.7,1.8,2469.94,13.32,0.021,59.9
2019-10-20T04:47:38,42.805,6.029,0.017,-0.007,-0.02,102.0,107.0,98.0,13.3,1505.3,326.0,-0.7,1.8,2469.894,13.32,0.018,112.4
2019-10-20T04:50:39,42.805,6.029,0.024,0.026,-0.022,98.0,108.0,98.0,13.4,1505.3,328.1,-0.7,1.8,2469.974,13.32,0.035,42.7
2019-10-20T04:53:40,42.805,6.029,0.019,0.003,-0.036,100.0,108.0,98.0,13.4,1505.3,324.3,-0.7,1.8,2469.935,13.32,0.019,81.0
2019-10-20T04:56:41,42.805,6.029,0.009,0.014,-0.011,102.0,108.0,97.0,13.4,1505.3,327.5,-0.7,1.8,2469.936,13.33,0.016,32.7
2019-10-20T04:59:42,42.805,6.029,0.009,0.013,0.001,100.0,107.0,98.0,13.3,1505.3,327.0,-0.7,1.8,2469.928,13.33,0.015,34.7
2019-10-20T05:02:43,42.805,6.029,0.041,-0.015,-0.034,100.0,108.0,99.0,13.4,1505.3,325.5,-0.7,1.8,2469.931,13.33,0.043,110.1
2019-10-20T05:05:44,42.805,6.029,-0.011,0.003,-0.046,100.0,107.0,98.0,13.4,1505.3,326.7,-0.7,1.8,2469.966,13.33,0.011,285.3
2019-10-20T05:08:45,42.805,6.029,0.008,0.018,-0.008,102.0,106.0,99.0,13.3,1505.3,328.0,-0.7,1.8,2469.927,13.33,0.019,24.0
2019-10-20T05:11:46,42.805,6.029,0.013,-0.003,-0.026,100.0,108.0,99.0,13.4,1505.3,325.4,-0.7,1.8,2469.98,13.33,0.013,103.0
2019-10-20T05:14:47,42.805,6.029,0.024,0.001,-0.01,100.0,105.0,98.0,13.3,1505.3,328.2,-0.7,1.8,2469.965,13.33,0.024,87.6
2019-10-20T05:17:48,42.805,6.029,0.031,0.011,-0.02,99.0,108.0,98.0,13.3,1505.3,324.9,-0.7,1.8,2469.938,13.33,0.032,70.5
2019-10-20T05:20:49,42.805,6.029,-0.015,-0.033,-0.081,100.0,105.0,97.0,13.4,1505.3,325.1,-0.7,1.8,2469.888,13.33,0.036,204.4
2019-10-20T05:23:50,42.805,6.029,0.007,0.009,-0.025,101.0,107.0,97.0,13.4,1505.3,324.1,-0.7,1.8,2469.941,13.33,0.011,37.9
2019-10-20T05:26:51,42.805,6.029,0.027,0.02,-0.02,99.0,107.0,98.0,13.4,1505.3,326.4,-0.7,1.8,2469.916,13.33,0.033,53.5
2019-10-20T05:29:52,42.805,6.029,0.052,-0.006,-0.034,99.0,106.0,98.0,13.4,1505.3,323.2,-0.7,1.8,2469.963,13.33,0.052,96.6
2019-10-20T05:32:53,42.805,6.029,0.02,0.004,-0.042,102.0,106.0,98.0,13.4,1505.3,326.8,-0.7,1.8,2469.905,13.33,0.02,78.7
2019-10-20T05:35:54,42.805,6.029,0.022,0.002,-0.028,100.0,108.0,98.0,13.4,1505.3,327.2,-0.7,1.8,2469.958,13.33,0.022,84.8
2019-10-20T05:38:55,42.805,6.029,-0.017,0.001,-0.036,100.0,107.0,98.0,13.4,1505.3,326.0,-0.7,1.8,2469.948,13.33,0.017,273.4
2019-10-20T05:41:56,42.805,6.029,0.009,-0.002,-0.04,101.0,107.0,98.0,13.4,1505.3,326.9,-0.7,1.8,2469.937,13.33,0.009,102.5
2019-10-20T05:44:57,42.805,6.029,0.011,0.007,-0.05,101.0,107.0,98.0,13.4,1505.3,327.9,-0.7,1.8,2469.942,13.33,0.013,57.5
2019-10-20T05:47:58,42.805,6.029,0.024,-0.007,-0.016,101.0,107.0,98.0,13.3,1505.3,327.2,-0.7,1.8,2469.946,13.33,0.025,106.3
2019-10-20T05:50:59,42.805,6.029,0.024,0.018,-0.008,101.0,108.0,97.0,13.4,1505.3,328.4,-0.7,1.8,2469.94,13.33,0.03,53.1
2019-10-20T05:54:00,42.805,6.029,0.017,0.013,-0.041,101.0,108.0,98.0,13.3,1505.3,326.6,-0.7,1.9,2469.959,13.32,0.021,52.6
2019-10-20T05:57:01,42.805,6.029,0.013,-0.005,-0.034,100.0,109.0,98.0,13.4,1505.3,327.0,-0.7,1.8,2469.985,13.32,0.013,111.0
2019-10-20T06:00:02,42.805,6.029,-0.001,0.003,-0.033,100.0,107.0,99.0,13.4,1505.3,326.0,-0.7,1.8,2469.956,13.32,0.003,341.6
2019-10-20T06:03:03,42.805,6.029,0.019,0.01,-0.029,101.0,106.0,98.0,13.4,1505.3,328.1,-0.7,1.8,2469.935,13.32,0.021,62.2
2019-10-20T06:06:04,42.805,6.029,0.023,0.001,0.009,102.0,107.0,97.0,13.3,1505.3,326.6,-0.7,1.8,2469.971,13.32,0.023,87.5
2019-10-20T06:09:05,42.805,6.029,0.029,0.012,-0.016,100.0,108.0,98.0,13.4,1505.3,325.2,-0.7,1.8,2469.971,13.32,0.031,67.5
2019-10-20T06:12:06,42.805,6.029,0.001,-0.004,-0.02,99.0,108.0,98.0,13.4,1505.3,325.7,-0.7,1.8,2469.964,13.32,0.004,166.0
2019-10-20T06:15:07,42.805,6.029,-0.002,0.016,0.001,101.0,108.0,98.0,13.3,1505.3,327.5,-0.7,1.9,2469.975,13.32,0.016,352.9
2019-10-20T06:18:08,42.805,6.029,0.006,-0.002,-0.025,100.0,108.0,99.0,13.3,1505.3,325.9,-0.8,1.9,2469.931,13.32,0.006,108.4
2019-10-20T06:21:09,42.805,6.029,0.021,0.003,-0.037,100.0,109.0,99.0,13.4,1505.3,326.0,-0.7,1.8,2469.967,13.32,0.021,81.9
2019-10-20T06:24:10,42.805,6.029,0.014,0.013,-0.026,101.0,107.0,97.0,13.3,1505.3,325.4,-0.7,1.8,2469.965,13.32,0.019,47.1
2019-10-20T06:27:11,42.805,6.029,0.037,0.0,0.007,100.0,108.0,98.0,13.4,1505.3,327.0,-0.7,1.8,2469.996,13.32,0.037,90.0
2019-10-20T06:30:12,42.805,6.029,0.013,-0.011,-0.077,98.0,105.0,100.0,13.3,1505.3,326.5,-0.7,1.8,2469.951,13.32,0.017,130.2
2019-10-20T06:33:13,42.805,6.029,0.028,0.0,-0.015,100.0,104.0,99.0,13.3,1505.3,324.2,-0.7,1.8,2469.961,13.32,0.028,90.0
2019-10-20T06:36:14,42.805,6.029,0.026,0.003,-0.034,100.0,104.0,98.0,13.3,1505.3,326.5,-0.7,1.8,2469.991,13.32,0.026,83.4
2019-10-20T06:39:15,42.805,6.029,0.017,0.006,-0.016,101.0,106.0,97.0,13.4,1505.3,326.5,-0.7,1.8,2469.954,13.32,0.018,70.6
2019-10-20T06:42:16,42.805,6.029,0.004,-0.008,-0.028,100.0,106.0,99.0,13.4,1505.3,327.6,-0.7,1.8,2469.94,13.32,0.008,153.4
2019-10-20T06:45:17,42.805,6.029,0.027,0.02,-0.039,101.0,106.0,98.0,13.4,1505.3,325.0,-0.7,1.9,2469.971,13.32,0.033,53.5
2019-10-20T06:48:18,42.805,6.029,0.035,-0.007,-0.023,100.0,106.0,98.0,13.4,1505.3,323.5,-0.7,1.8,2469.982,13.32,0.035,101.3
2019-10-20T06:51:19,42.805,6.029,0.03,0.004,-0.021,99.0,107.0,98.0,13.4,1505.3,325.7,-0.7,1.8,2469.995,13.32,0.03,82.4
2019-10-20T06:54:20,42.805,6.029,-0.014,-0.01,-0.041,100.0,106.0,99.0,13.4,1505.3,326.6,-0.7,1.8,2469.982,13.32,0.017,234.5
2019-10-20T06:57:21,42.805,6.029,0.004,0.0,-0.031,101.0,104.0,98.0,13.4,1505.3,328.0,-0.7,1.8,2470.007,13.32,0.004,90.0
2019-10-20T07:00:22,42.805,6.029,0.025,-0.009,-0.016,100.0,106.0,99.0,13.4,1505.3,326.7,-0.7,1.9,2469.979,13.32,0.026,109.8
2019-10-20T07:03:23,42.805,6.029,0.026,0.001,-0.008,100.0,105.0,98.0,13.4,1505.3,327.6,-0.7,1.9,2469.981,13.32,0.026,87.8
2019-10-20T07:06:24,42.805,6.029,0.045,-0.008,-0.034,101.0,105.0,99.0,13.4,1505.3,326.4,-0.7,1.8,2469.944,13.32,0.045,100.1
2019-10-20T07:09:25,42.805,6.029,0.035,-0.005,-0.03,100.0,105.0,99.0,13.4,1505.3,327.8,-0.7,1.9,2469.971,13.32,0.035,98.1
2019-10-20T07:12:26,42.805,6.029,0.015,0.004,-0.03,101.0,106.0,98.0,13.4,1505.3,327.0,-0.7,1.8,2469.94,13.32,0.015,75.1
2019-10-20T07:15:27,42.805,6.029,0.023,-0.006,-0.028,101.0,106.0,98.0,13.3,1505.3,325.0,-0.8,1.8,2469.987,13.32,0.023,104.6
2019-10-20T07:18:28,42.805,6.029,0.018,0.003,-0.041,101.0,104.0,98.0,13.4,1505.3,327.2,-0.7,1.8,2470.003,13.32,0.018,80.5
2019-10-20T07:21:29,42.805,6.029,0.024,0.018,0.003,100.0,104.0,98.0,13.4,1505.3,324.8,-0.7,1.9,2469.974,13.32,0.03,53.1
2019-10-20T07:24:30,42.805,6.029,0.034,-0.003,-0.037,101.0,103.0,98.0,13.4,1505.3,325.4,-0.7,1.8,2469.971,13.32,0.034,95.0
2019-10-20T07:27:31,42.805,6.029,0.038,-0.002,-0.022,101.0,104.0,98.0,13.4,1505.3,327.6,-0.7,1.8,2469.992,13.32,0.038,93.0
2019-10-20T07:30:32,42.805,6.029,0.015,-0.023,-0.063,100.0,104.0,99.0,13.4,1505.3,325.8,-0.7,1.8,2469.98,13.32,0.027,146.9
2019-10-20T07:33:33,42.805,6.029,0.039,-0.01,-0.025,101.0,106.0,99.0,13.4,1505.3,327.3,-0.7,1.8,2470.024,13.32,0.04,104.4
2019-10-20T07:36:34,42.805,6.029,0.021,-0.022,-0.044,100.0,105.0,98.0,13.4,1505.3,325.7,-0.7,1.8,2470.035,13.32,0.03,136.3
2019-10-20T07:39:35,42.805,6.029,0.047,0.004,-0.039,100.0,104.0,99.0,13.4,1505.3,324.2,-0.7,1.8,2470.016,13.32,0.047,85.1
2019-10-20T07:42:36,42.805,6.029,0.012,-0.008,-0.027,100.0,104.0,99.0,13.4,1505.3,324.4,-0.7,1.8,2470.024,13.32,0.014,123.7
2019-10-20T07:45:37,42.805,6.029,0.044,-0.008,0.004,100.0,105.0,99.0,13.3,1505.3,324.0,-0.7,1.9,2470.009,13.32,0.044,100.3
2019-10-20T07:48:38,42.805,6.029,0.037,-0.003,-0.02,100.0,104.0,99.0,13.4,1505.3,323.7,-0.7,1.8,2470.034,13.32,0.037,94.6
2019-10-20T07:51:39,42.805,6.029,0.014,-0.017,-0.042,101.0,105.0,98.0,13.3,1505.3,325.8,-0.7,1.8,2470.042,13.32,0.022,140.5
2019-10-20T07:54:40,42.805,6.029,0.034,-0.021,-0.007,101.0,106.0,98.0,13.3,1505.3,324.8,-0.7,1.8,2470.014,13.32,0.039,121.7
2019-10-20T07:57:41,42.805,6.029,0.03,0.0,0.0,101.0,105.0,98.0,13.3,1505.3,324.8,-0.7,1.8,2469.997,13.32,0.03,90.0
2019-10-20T08:00:42,42.805,6.029,0.022,-0.021,-0.035,100.0,105.0,97.0,13.4,1505.3,325.7,-0.7,1.8,2470.054,13.32,0.03,133.7
2019-10-20T08:03:43,42.805,6.029,0.033,0.005,0.007,101.0,104.0,98.0,13.4,1505.3,328.2,-0.7,1.8,2470.053,13.32,0.033,81.4
2019-10-20T08:06:44,42.805,6.029,0.033,-0.003,-0.04,101.0,104.0,98.0,13.4,1505.3,325.4,-0.7,1.8,2470.072,13.32,0.033,95.2
2019-10-20T08:09:45,42.805,6.029,0.032,-0.004,-0.014,100.0,104.0,98.0,13.3,1505.3,324.5,-0.7,1.8,2470.035,13.33,0.032,97.1
2019-10-20T08:12:46,42.805,6.029,0.034,0.022,0.0,100.0,103.0,98.0,13.4,1505.3,327.2,-0.7,1.9,2470.045,13.33,0.04,57.1
2019-10-20T08:15:47,42.805,6.029,0.017,0.026,-0.032,100.0,104.0,97.0,13.4,1505.3,324.1,-0.7,1.8,2470.059,13.33,0.031,33.2
2019-10-20T08:18:48,42.805,6.029,0.034,0.005,-0.046,100.0,105.0,99.0,13.4,1505.3,324.3,-0.7,1.8,2470.05,13.33,0.034,81.6
2019-10-20T08:21:49,42.805,6.029,0.017,-0.024,-0.05,101.0,104.0,99.0,13.3,1505.3,328.1,-0.7,1.8,2470.057,13.33,0.029,144.7
2019-10-20T08:24:50,42.805,6.029,0.022,-0.008,-0.06,101.0,105.0,97.0,13.4,1505.3,326.3,-0.7,1.8,2470.038,13.33,0.023,110.0
2019-10-20T08:27:51,42.805,6.029,0.008,-0.002,-0.046,100.0,105.0,98.0,13.4,1505.3,324.9,-0.7,1.8,2470.059,13.33,0.008,104.0
2019-10-20T08:30:52,42.805,6.029,0.024,-0.005,-0.014,101.0,105.0,98.0,13.3,1505.3,327.1,-0.7,1.8,2470.068,13.33,0.024,101.8
2019-10-20T08:33:53,42.805,6.029,0.031,0.012,-0.034,101.0,104.0,98.0,13.4,1505.3,324.6,-0.7,1.8,2470.031,13.33,0.033,68.8
2019-10-20T08:36:54,42.805,6.029,-0.004,0.018,-0.019,102.0,104.0,98.0,13.4,1505.3,325.6,-0.7,1.8,2470.07,13.33,0.018,347.5
2019-10-20T08:39:55,42.805,6.029,0.041,0.021,-0.013,101.0,105.0,98.0,13.3,1505.3,324.5,-0.7,1.8,2470.063,13.33,0.046,62.9
2019-10-20T08:42:56,42.805,6.029,-0.002,-0.005,-0.034,99.0,106.0,98.0,13.3,1505.3,326.5,-0.8,1.8,2470.066,13.33,0.005,201.8
2019-10-20T08:45:57,42.805,6.029,-0.017,-0.007,-0.04,99.0,105.0,98.0,13.4,1505.3,325.3,-0.7,1.8,2470.085,13.33,0.018,247.6
2019-10-20T08:48:58,42.805,6.029,-0.024,-0.002,-0.046,100.0,105.0,97.0,13.4,1505.3,326.6,-0.7,1.9,2470.127,13.33,0.024,265.2
2019-10-20T08:51:59,42.805,6.029,0.041,-0.025,-0.018,101.0,104.0,98.0,13.4,1505.3,325.2,-0.7,1.8,2470.112,13.33,0.048,121.4
2019-10-20T08:55:00,42.805,6.029,0.008,0.007,-0.045,100.0,104.0,98.0,13.4,1505.3,325.4,-0.7,1.9,2470.091,13.33,0.01,48.8
2019-10-20T08:58:01,42.805,6.029,0.001,-0.017,-0.025,101.0,103.0,98.0,13.4,1505.3,326.6,-0.7,1.8,2470.05,13.33,0.017,176.6
2019-10-20T09:01:02,42.805,6.029,0.03,-0.001,-0.013,101.0,105.0,99.0,13.4,1505.3,326.1,-0.7,1.8,2470.117,13.33,0.03,91.9
2019-10-20T09:04:03,42.805,6.029,0.01,-0.014,-0.064,100.0,104.0,99.0,13.4,1505.3,327.2,-0.7,1.9,2470.081,13.33,0.017,144.5
2019-10-20T09:07:04,42.805,6.029,0.004,0.001,-0.078,101.0,104.0,98.0,13.3,1505.3,325.5,-0.7,1.9,2470.062,13.33,0.004,76.0
2019-10-20T09:10:05,42.805,6.029,0.021,-0.016,-0.049,100.0,104.0,100.0,13.4,1505.3,326.6,-0.7,1.8,2470.063,13.33,0.026,127.3
2019-10-20T09:13:06,42.805,6.029,0.021,-0.004,-0.033,99.0,106.0,98.0,13.4,1505.3,326.9,-0.7,1.8,2470.123,13.33,0.021,100.8
2019-10-20T09:16:07,42.805,6.029,-0.024,-0.005,-0.05,101.0,105.0,98.0,13.4,1505.3,326.3,-0.7,1.8,2470.113,13.33,0.024,258.2
2019-10-20T09:19:08,42.805,6.029,0.005,-0.007,-0.059,100.0,104.0,99.0,13.4,1505.3,325.5,-0.7,1.8,2470.085,13.33,0.008,144.5
2019-10-20T09:22:09,42.805,6.029,0.023,0.01,-0.056,100.0,104.0,98.0,13.4,1505.3,327.3,-0.7,1.8,2470.11,13.33,0.025,66.5
2019-10-20T09:25:10,42.805,6.029,0.005,-0.002,-0.047,101.0,106.0,98.0,13.4,1505.3,328.6,-0.7,1.9,2470.087,13.33,0.005,111.8
2019-10-20T09:28:11,42.805,6.029,0.0,-0.002,-0.045,100.0,105.0,98.0,13.4,1505.3,325.3,-0.7,1.8,2470.045,13.33,0.002,180.0
2019-10-20T09:31:12,42.805,6.029,0.035,0.004,-0.013,100.0,103.0,99.0,13.4,1505.3,327.4,-0.7,1.8,2470.093,13.33,0.035,83.5
2019-10-20T09:34:13,42.805,6.029,0.034,0.002,-0.017,100.0,103.0,99.0,13.4,1505.3,326.5,-0.7,1.8,2470.115,13.33,0.034,86.6
2019-10-20T09:37:14,42.805,6.029,0.016,-0.003,-0.03,100.0,104.0,99.0,13.3,1505.3,327.4,-0.7,1.8,2470.106,13.32,0.016,100.6
2019-10-20T09:40:15,42.805,6.029,-0.004,-0.008,-0.046,101.0,102.0,98.0,13.4,1505.3,326.0,-0.7,1.8,2470.114,13.33,0.008,206.6